Regional Weather Roundup
Issued by NWS Midland/Odessa, TX

Home | Current Version | Previous Version | Text Only | Print | Product List | Glossary On
Versions: 1 2 3 4 5 6 7 8 9 10 11 12 13 14 15 16 17 18 19 20 21 22 23 24 25 26 27 28 29 30 31 32 33 34 35 36 37 38 39 40 41 42 43 44 45 46 47 48 49 50
000
ASUS44 KMAF 062010
RWRMAF
MIDLAND AREA WEATHER ROUNDUP
NATIONAL WEATHER SERVICE MIDLAND TX
200 PM CST TUE DEC 06 2016

...IN SOUTHWEST TEXAS AND SOUTHEAST NEW MEXICO...

CITY           SKY/WX    TMP DP  RH WIND       PRES   REMARKS
ALPINE         SUNNY     53  31  43 E8        30.06F
ANDREWS        FAIR      43  26  52 CALM      30.07S
ARTESIA        SUNNY     43  14  31 CALM      30.04F
BIG SPRING     CLOUDY    42  29  58 N6        30.09S WCI  39
CARLSBAD       MOSUNNY   45  19  35 E6        30.04F
DRYDEN           N/A     61  35  37 N17G23    29.97F
FORT STOCKTON  SUNNY     50  30  46 NW7       30.04F
GUAD PASS      NOT AVBL
HOBBS          SUNNY     45  16  31 E6        30.06F
MARFA          SUNNY     62  30  29 W16       30.00F
MIDLAND AIRPK  SUNNY     46  29  52 NE5       30.07F
MIDLAND INTL   SUNNY     46  28  49 CALM      30.05F
ODESSA         SUNNY     46  29  51 VRB7      30.05F
PECOS          SUNNY     48  26  41 W5        30.05F
PRESIDIO       FAIR      66  34  30 W5        29.95F
SEMINOLE       CLOUDY    44  23  43 E7        30.07S
SNYDER         CLOUDY    43  25  50 N7        30.07R WCI  39
WINK           SUNNY     50  25  37 VRB5      30.03F
$$
...OTHER STATIONS IN TEXAS...

CITY           SKY/WX    TMP DP  RH WIND       PRES   REMARKS
ABILENE        CLOUDY    45  35  68 N7        30.05F
AMARILLO       MOSUNNY   35   4  27 E6        30.06F WCI  30
AUSTIN         CLOUDY    55  47  74 N13       29.97S
BROWNSVILLE    SUNNY     80  63  55 SW10      29.90F
CORPUS CHRISTI MOSUNNY   77  58  51 CALM      29.89F
DALLAS FTW     CLOUDY    49  42  77 N14       29.98S
DEL RIO        SUNNY     64  42  44 NW9       29.95F
EL PASO        PTSUNNY   62  31  31 SW14      29.93F
HOUSTON INT    MOSUNNY   69  51  52 NW8       29.90R
LUBBOCK        PTSUNNY   42  14  32 NE10      30.06F WCI  36
SAN ANGELO     CLOUDY    46  38  73 NE7       30.05F
SAN ANTONIO    MOSUNNY   63  46  54 N14G21    29.95F
WACO           CLOUDY    52  47  83 N12       29.99R
WICHITA FALLS  NOT AVBL
$$
...OTHER LOCATIONS IN NEW MEXICO...

CITY           SKY/WX    TMP DP  RH WIND       PRES   REMARKS
ALAMAGORDO     NOT AVBL
ALBUQUERQUE    PTSUNNY   50  15  24 SW10      29.83F
CANNON AFB     NOT AVBL
CLOVIS         CLOUDY    37   9  30 E8        30.02F WCI  31
HOLLOMAN AFB   NOT AVBL
ROSWELL        PTSUNNY   40  10  29 VRB6      30.04F WCI  36
RUIDOSO        NOT AVBL
SANTA FE       CLOUDY    34  10  37 SE20      29.88F WCI  23
TRUTH OR CONSE CLOUDY    55  22  27 S18G24    29.88F
TUCUMCARI      PTSUNNY   37   3  24 E6        30.00F WCI  32
$$




USA.gov is the U.S. government's official web portal to all federal, state and local government web resources and services.